When you browse on this site, cookies collect data to enhance your experience and personalize the content and advertising you see.
Visit our Privacy Policy to learn more. By continuing to use the site, you agree to this use of cookies and data.
  • In Portugal
  • List of Countries
  • For 7 days
  • Water Temperature
  • Satellite Maps
  • Weather Map
  • Weather Widgets
  • user-avatar
    Login

    Hourly Weather Tibissa

    Today, 22 March, Friday

    Time Temperature Precipitation Wind Pressure Humidity
    00:00 +5°C° 0.3 mm 3 mps 682 mmHg 91%
    01:00 +5°C° 0.3 mm 2 mps 682 mmHg 93%
    02:00 +5°C° 0.1 mm 2 mps 682 mmHg 93%
    03:00 +4°C° 0.1 mm 2 mps 682 mmHg 94%
    04:00 +5°C° 0.1 mm 1 mps 682 mmHg 94%
    05:00 +5°C° 0 mm 1 mps 682 mmHg 94%
    06:00 +5°C° 0 mm 1 mps 683 mmHg 94%
    07:00 +5°C° 0 mm 1 mps 683 mmHg 94%
    08:00 +5°C° 0 mm 2 mps 684 mmHg 86%
    09:00 +6°C° 0 mm 2 mps 684 mmHg 79%
    10:00 +8°C° 0 mm 3 mps 685 mmHg 71%
    11:00 +8°C° 0.3 mm 3 mps 685 mmHg 67%
    12:00 +8°C° 0.3 mm 4 mps 685 mmHg 62%
    13:00 +10°C° 0.3 mm 4 mps 685 mmHg 57%
    14:00 +10°C° 0.7 mm 4 mps 685 mmHg 58%
    15:00 +10°C° 0.7 mm 4 mps 684 mmHg 59%
    16:00 +10°C° 0.7 mm 4 mps 684 mmHg 59%
    17:00 +8°C° 0.9 mm 4 mps 684 mmHg 66%
    18:00 +8°C° 0.9 mm 4 mps 685 mmHg 74%
    19:00 +7°C° 0.9 mm 4 mps 685 mmHg 81%
    20:00 +6°C° 0.2 mm 4 mps 685 mmHg 83%
    21:00 +7°C° 0.2 mm 3 mps 685 mmHg 86%
    22:00 +7°C° 0.2 mm 2 mps 686 mmHg 88%
    23:00 +7°C° 0 mm 2 mps 686 mmHg 89%

    Tomorrow, 23 March, Saturday

    Time Temperature Precipitation Wind Pressure Humidity
    00:00 +6°C° 0 mm 2 mps 686 mmHg 90%
    01:00 +6°C° 0 mm 2 mps 686 mmHg 91%
    02:00 +5°C° 0 mm 3 mps 685 mmHg 92%
    03:00 +5°C° 0 mm 3 mps 685 mmHg 92%
    04:00 +5°C° 0 mm 4 mps 685 mmHg 92%
    05:00 +5°C° 0.2 mm 4 mps 685 mmHg 92%
    06:00 +5°C° 0.2 mm 4 mps 685 mmHg 92%
    07:00 +5°C° 0.2 mm 5 mps 685 mmHg 91%
    08:00 +5°C° 0.6 mm 5 mps 686 mmHg 90%
    09:00 +5°C° 0.6 mm 5 mps 686 mmHg 89%
    10:00 +5°C° 0.6 mm 6 mps 687 mmHg 88%
    11:00 +5°C° 0.8 mm 6 mps 687 mmHg 88%
    12:00 +5°C° 0.8 mm 6 mps 687 mmHg 89%
    13:00 +7°C° 0.8 mm 6 mps 687 mmHg 89%
    14:00 +6°C° 0.1 mm 7 mps 687 mmHg 86%
    15:00 +8°C° 0.1 mm 7 mps 687 mmHg 83%
    16:00 +8°C° 0.1 mm 7 mps 687 mmHg 79%
    17:00 +8°C° 0.1 mm 7 mps 687 mmHg 82%
    18:00 +7°C° 0.1 mm 6 mps 687 mmHg 84%
    19:00 +7°C° 0.1 mm 6 mps 688 mmHg 86%
    20:00 +6°C° 0 mm 5 mps 688 mmHg 89%
    21:00 +6°C° 0 mm 4 mps 688 mmHg 93%
    22:00 +6°C° 0 mm 2 mps 689 mmHg 96%
    23:00 +6°C° 0 mm 2 mps 689 mmHg 96%

    Day after tomorrow, 24 March, Sunday

    Time Temperature Precipitation Wind Pressure Humidity
    00:00 +6°C° 0 mm 2 mps 689 mmHg 97%
    01:00 +6°C° 0 mm 1 mps 689 mmHg 97%
    02:00 +6°C° 0 mm 1 mps 689 mmHg 97%
    03:00 +6°C° 0 mm 2 mps 689 mmHg 96%
    04:00 +6°C° 0 mm 2 mps 689 mmHg 95%
    05:00 +7°C° 0 mm 1 mps 689 mmHg 94%
    06:00 +7°C° 0 mm 1 mps 689 mmHg 94%
    07:00 +6°C° 0 mm 1 mps 689 mmHg 94%
    08:00 +8°C° 0 mm 1 mps 690 mmHg 84%
    09:00 +9°C° 0 mm 1 mps 690 mmHg 74%
    10:00 +11°C° 0 mm 1 mps 690 mmHg 64%
    11:00 +12°C° 0 mm 1 mps 690 mmHg 57%
    12:00 +13°C° 0 mm 1 mps 690 mmHg 50%
    13:00 +13°C° 0 mm 0 mps 690 mmHg 44%
    14:00 +15°C° 0 mm 1 mps 690 mmHg 41%
    15:00 +15°C° 0 mm 1 mps 690 mmHg 39%
    16:00 +16°C° 0 mm 1 mps 689 mmHg 36%
    17:00 +15°C° 0 mm 1 mps 689 mmHg 40%
    18:00 +14°C° 0 mm 2 mps 689 mmHg 43%
    19:00 +14°C° 0 mm 2 mps 689 mmHg 46%
    20:00 +13°C° 0 mm 2 mps 689 mmHg 51%
    21:00 +12°C° 0 mm 2 mps 690 mmHg 55%
    22:00 +12°C° 0 mm 1 mps 690 mmHg 60%
    23:00 +10°C° 0 mm 2 mps 690 mmHg 61%

    25 March, Monday

    Time Temperature Precipitation Wind Pressure Humidity
    00:00 +10°C° 0 mm 2 mps 689 mmHg 63%
    01:00 +9°C° 0 mm 2 mps 689 mmHg 65%
    02:00 +9°C° 0 mm 2 mps 689 mmHg 67%
    03:00 +8°C° 0 mm 2 mps 689 mmHg 68%
    04:00 +8°C° 0 mm 2 mps 688 mmHg 70%
    05:00 +8°C° 0 mm 2 mps 688 mmHg 71%
    06:00 +8°C° 0 mm 2 mps 688 mmHg 72%
    07:00 +8°C° 0 mm 2 mps 688 mmHg 73%
    08:00 +10°C° 0 mm 2 mps 689 mmHg 65%
    09:00 +12°C° 0 mm 2 mps 689 mmHg 58%
    10:00 +13°C° 0 mm 3 mps 690 mmHg 51%
    11:00 +14°C° 0 mm 3 mps 690 mmHg 47%
    12:00 +16°C° 0 mm 3 mps 690 mmHg 44%
    13:00 +17°C° 0 mm 3 mps 689 mmHg 40%
    14:00 +17°C° 0 mm 3 mps 689 mmHg 39%
    15:00 +18°C° 0 mm 4 mps 688 mmHg 39%
    16:00 +18°C° 0 mm 4 mps 688 mmHg 38%
    17:00 +17°C° 0 mm 4 mps 688 mmHg 43%
    18:00 +15°C° 0 mm 4 mps 688 mmHg 49%
    19:00 +14°C° 0 mm 4 mps 688 mmHg 54%
    20:00 +13°C° 0 mm 3 mps 688 mmHg 60%
    21:00 +13°C° 0 mm 2 mps 688 mmHg 67%
    22:00 +12°C° 0 mm 1 mps 688 mmHg 74%
    23:00 +11°C° 0 mm 1 mps 688 mmHg 76%

    26 March, Tuesday

    Time Temperature Precipitation Wind Pressure Humidity
    00:00 +11°C° 0 mm 1 mps 688 mmHg 78%
    01:00 +9°C° 0 mm 0 mps 687 mmHg 80%
    02:00 +9°C° 0 mm 0 mps 687 mmHg 81%
    03:00 +9°C° 0 mm 0 mps 687 mmHg 82%
    04:00 +8°C° 0 mm 0 mps 687 mmHg 82%
    05:00 +9°C° 0 mm 1 mps 687 mmHg 82%
    06:00 +9°C° 0 mm 1 mps 687 mmHg 81%
    07:00 +10°C° 0 mm 1 mps 687 mmHg 80%
    08:00 +12°C° 0 mm 2 mps 688 mmHg 70%
    09:00 +13°C° 0 mm 3 mps 688 mmHg 59%
    10:00 +15°C° 0 mm 4 mps 689 mmHg 49%
    11:00 +16°C° 0 mm 3 mps 689 mmHg 43%
    12:00 +17°C° 0 mm 3 mps 689 mmHg 37%
    13:00 +18°C° 0 mm 3 mps 689 mmHg 31%
    14:00 +18°C° 0 mm 3 mps 688 mmHg 30%
    15:00 +19°C° 0 mm 3 mps 688 mmHg 29%
    16:00 +19°C° 0 mm 3 mps 688 mmHg 28%
    17:00 +18°C° 0 mm 3 mps 688 mmHg 33%
    18:00 +15°C° 0 mm 4 mps 688 mmHg 38%
    19:00 +14°C° 0 mm 4 mps 688 mmHg 43%
    20:00 +13°C° 0 mm 3 mps 688 mmHg 48%
    21:00 +14°C° 0 mm 2 mps 689 mmHg 52%
    22:00 +13°C° 0 mm 2 mps 689 mmHg 57%
    23:00 +12°C° 0 mm 2 mps 689 mmHg 59%

    27 March, Wednesday

    Time Temperature Precipitation Wind Pressure Humidity
    00:00 +10°C° 0 mm 2 mps 689 mmHg 61%
    01:00 +10°C° 0 mm 2 mps 689 mmHg 64%
    02:00 +10°C° 0 mm 1 mps 689 mmHg 66%
    03:00 +10°C° 0 mm 1 mps 689 mmHg 68%
    04:00 +9°C° 0 mm 1 mps 689 mmHg 71%
    05:00 +9°C° 0 mm 1 mps 689 mmHg 71%
    06:00 +9°C° 0 mm 1 mps 689 mmHg 71%
    07:00 +9°C° 0 mm 1 mps 689 mmHg 72%
    08:00 +11°C° 0 mm 1 mps 690 mmHg 65%
    09:00 +13°C° 0 mm 2 mps 690 mmHg 59%
    10:00 +14°C° 0 mm 2 mps 691 mmHg 52%
    11:00 +14°C° 0 mm 3 mps 691 mmHg 48%
    12:00 +16°C° 0 mm 3 mps 691 mmHg 43%
    13:00 +18°C° 0 mm 4 mps 691 mmHg 39%
    14:00 +18°C° 0 mm 4 mps 691 mmHg 38%
    15:00 +17°C° 0 mm 5 mps 690 mmHg 37%
    16:00 +17°C° 0 mm 5 mps 690 mmHg 36%
    17:00 +15°C° 0 mm 5 mps 690 mmHg 43%
    18:00 +14°C° 0 mm 6 mps 690 mmHg 50%
    19:00 +11°C° 0 mm 6 mps 689 mmHg 57%
    20:00 +12°C° 0 mm 5 mps 690 mmHg 63%
    21:00 +11°C° 0 mm 4 mps 690 mmHg 70%
    22:00 +10°C° 0 mm 4 mps 690 mmHg 77%
    23:00 +10°C° 0 mm 3 mps 690 mmHg 80%
    Show more